User: anonymous   Login
Location: Unspecified
(0.0000°N, 0.0000°E)
Time: 23:03:21
(UTC+00:00)
Language:

STARLINK-30704 - Orbit

View from above orbital plane
View from above orbital plane
View from above satellite
View from above satellite

Ground track
Ground track

The orbit is defined by the following mean orbital elements,

1 57946U          26145.60317365 +.00000000 +00000-0 +92774-4 0 00006
2 57946  53.1603 104.1875 0001869  82.2231 277.8981 15.30180376    05
Epoch (UTC): 25 May 2026 14:28:34
Eccentricity: 0.0001869
inclination: 53.1603°
perigee height: 474 km
apogee height: 477 km
right ascension of ascending node: 104.1875°
argument of perigee: 82.2231°
revolutions per day: 15.30180376
mean anomaly at epoch: 277.8981°

The dashed part of the orbit path shows where the satellite is in the earth's shadow,  

DLR